Location: Unspecified
(64.9000°N, 0.0000°E)
Time: 13:31:51
(UTC+00:00)

Vanguard 1 - Pass Details

Date: 23 June 2019
Orbit: 655 x 3829 km, 34.2° (Epoch: 16 August)

Event Time Altitude Azimuth Distance (km) Brightness Sun altitude
Rises 03:51:26 0° 223° (SW) 6,885 13.7 8.6°
Reaches altitude 10° 04:01:58 10° 193° (SSW) 4,857 13.2 9.5°
Maximum altitude 04:04:10 11° 184° (S) 4,568 13.1 9.7°
Drops below altitude 10° 04:06:11 10° 174° (S) 4,382 13.1 9.9°
Sets 04:13:05 0° 138° (SE) 4,540 13.6 10.5°
